Other Surface Observations
Issued by NWS

Home | Current Version | Previous Version | Text Only | Print | Product List | Glossary On
Versions: 1 2 3 4 5 6 7 8 9 10 11 12 13 14 15 16 17 18 19 20 21 22 23 24 25 26 27 28 29 30 31 32 33 34 35 36 37 38 39 40 41 42 43 44 45 46 47 48 49 50
621
SXUS52 KTAE 252018
OSOTAE
OSOTAE
North Florida/South Alabama/Southwest Georgia Weather Roundup
National Weather Service Tallahassee Florida
400 PM EDT WED MAY 25 2016

Note: "fair" indicates few or no clouds below 12,000 feet with no
significant weather and/or obstructions to visibility.

!FLZ017-115-028-034-025-252100
...North Florida...

CITY           SKY/WX    TMP DP  RH WIND       PRES   REMARKS
TALLAHASSEE    CLOUDY    89  60  37 S12       30.17F
APALACHICOLA   MOSUNNY   82  73  74 SE8       30.19F
PERRY          CLOUDY    85  67  54 W3        30.18S
CROSS CITY       N/A     92  55  28 E10       30.16F HX  90
JACKSONVILLE   MOSUNNY   85  55  35 SE13      30.20F
$$

!FLZ112-006-005-002-011-252100
...Florida Panhandle...

CITY           SKY/WX    TMP DP  RH WIND       PRES   REMARKS
MARIANNA       MOSUNNY   87  64  46 S6        30.16F
BONIFAY        FAIR      89  65  44 VRB6      30.16F HX  91
PANAMA CITY NW FAIR      83  70  64 S10       30.17F
TYNDALL AFB    MOSUNNY   80  73  78 S10       30.17S
TYND DRONE APT FAIR      80  74  80 S14       30.16F
DE FUNIAK SPR  FAIR      84  66  54 CALM      30.18F
EGLIN AFB      PTSUNNY   83  68  59 S13       30.17F
DESTIN         MOSUNNY   84  73  69 SE9       30.17F HX  90
HURLBURT       MOSUNNY   82  68  61 SE9       30.16F
CRESTVIEW      PTSUNNY   87  65  47 S8        30.18F
PENSACOLA      SUNNY     84  64  50 SE12      30.17F
$$

!ALZ063-066-252100
...South Alabama...

CITY           SKY/WX    TMP DP  RH WIND       PRES   REMARKS
DOTHAN         CLOUDY    88  57  34 SE7       30.21F
OZARK CAIRNS   PTSUNNY   87  63  44 VRB3      30.17F
FT RUCKER HELI NOT AVBL
RUCKER HELI 3  FAIR      85  61  44 SW3       30.19F
RUCKER HELI 2  NOT AVBL
FLORALA APT    CLOUDY    84  63  49 SE7       30.19F
ANDALUSIA      CLOUDY    88  63  43 VRB5      30.18F
TROY           PTSUNNY   86  62  44 S8        30.19F
EUFALA         FAIR      91  60  35 S3        30.17F HX  90
MOBILE         PTSUNNY   84  63  49 SE10      30.18S
$$

!GAZ120>161-252100
...Southwest and South Central Georgia...

CITY           SKY/WX    TMP DP  RH WIND       PRES   REMARKS
THOMASVILLE    FAIR      88  59  37 SW3       30.19F
BAINBRIDGE     SUNNY     88  59  37 SE3       30.18F
MOODY AFB      MOSUNNY   88  55  32 E5        30.18F
VALDOSTA       MOSUNNY   89  57  33 E8        30.18F
MOULTRIE       SUNNY     88  57  35 S3        30.19F
BLAKELY        SUNNY     90  61  37 CALM      30.18F
ALBANY         MOSUNNY   90  55  30 S8        30.20F
TIFTON         FAIR      86  56  36 S5        30.19F
FITZGERALD     FAIR      90  56  31 CALM      30.22S
CORDELE        MOCLDY    90  56  31 SE5       30.21F
AMERICUS       FAIR      88  52  29 SW6       30.21F
HOMERVILLE     FAIR      88  55  33 S10       30.19F
$$

!GMZ750-755-770-775-252100
...Coastal and Buoy Obs...

STATION/POSITION TIME  TEMP    WIND        PRES    VSBY  WAVE
                       AIR SEA DIR/SP/G                  HT/PER
                 (UTC) (F)     (DEG/KT/KT) (MB)    (MI)  (FT/S)
KEATON BEACH     2000   79     240/ 10/ 11 1021.6F
CEDAR KEY        2000   83     250/  4/  5 1021.7F
C TOWER          2000   77     110/  7/  8 1022.8F
APALACHICOLA BUO 1950   79 79  130/ 10/ 10 1021.2F         2/ 5
PANAMA CITY BUOY 1950   79 81  110/  4/  4 1021.9R         1/ 3
MOBILE BUOY      2000   78 78  100/  8/ 10 1021.1F
ORANGE BCH AL BU 1950   78 80  110/  8/ 10 1021.0F         1/ 3
$$




USA.gov is the U.S. government's official web portal to all federal, state and local government web resources and services.